CW0351 Weather Reports


Display with metric or nautical units.
time (UTC)temp
F
wind
direction
speed
MPH
gust
MPH
rain 1hr
in
rain 24hr
in
rain mn
in
humidity
%
barometer
mb
20260903160106 76 0 0.0 9.0 0.00 0.00 0.00 89 1016.1
20260903154605 76 0 0.0 8.0 0.00 0.00 0.00 94 1016.3
20260903153109 75 0 0.0 9.0 0.00 0.00 0.00 97 1016.3
20260903151602 75 0 0.0 7.0 0.00 0.00 0.00 99 1016.4
20260903150105 74 0 1.0 10.0 0.00 0.00 0.00 100 1016.5
20260903144559 74 0 0.0 4.0 0.00 0.00 0.00 100 1016.4
20260903143112 73 0 0.0 9.0 0.00 0.00 0.00 100 1016.6
20260903141555 73 213 1.0 8.0 0.00 0.00 0.00 100 1016.4
20260903140109 72 0 0.0 8.0 0.00 0.00 0.00 100 1016.3
20260903134600 72 0 1.0 4.0 0.00 0.00 0.00 100 1016.1
20260903133110 71 215 0.0 5.0 0.00 0.00 0.00 100 1015.9
20260903131608 71 0 0.0 0.0 0.00 0.00 0.00 100 1015.9
20260903130107 70 0 0.0 5.0 0.00 0.00 0.00 100 1016.2
20260903124601 70 0 0.0 5.0 0.00 0.00 0.00 100 1016.2
20260903123059 69 0 0.0 6.0 0.00 0.00 0.00 100 1016.2
20260903121555 69 0 0.0 4.0 0.00 0.00 0.00 100 1016.0
20260903120055 69 0 0.0 5.0 0.00 0.00 0.00 100 1015.7
20260903114558 69 0 0.0 6.0 0.00 0.00 0.00 100 1014.9
20260903113056 68 0 0.0 5.0 0.00 0.00 0.00 100 1015.7
20260903111604 68 0 0.0 5.0 0.00 0.00 0.00 100 1016.3
20260903110059 69 0 1.0 6.0 0.00 0.00 0.00 100 1016.3
20260903104556 69 0 0.0 6.0 0.00 0.00 0.00 100 1016.9
20260903103059 69 0 0.0 0.0 0.00 0.00 0.00 100 1017.0
20260903101601 68 188 0.0 4.0 0.00 0.00 0.00 100 1016.3
20260903100056 68 0 0.0 0.0 0.00 0.00 0.00 100 1016.6
20260903094610 68 0 0.0 3.0 0.00 0.00 0.00 100 1016.6
20260903093107 68 0 0.0 3.0 0.00 0.00 0.00 100 1016.1
20260903091557 68 205 0.0 5.0 0.00 0.00 0.00 100 1016.2
20260903084600 67 0 0.0 0.0 0.00 0.00 0.00 100 1016.6
20260903083056 68 0 0.0 4.0 0.00 0.00 0.00 100 1018.1
20260903081555 68 0 0.0 0.0 0.00 0.00 0.00 100 1017.5
20260903080058 68 0 0.0 0.0 0.00 0.00 0.00 100 1018.1
20260903074558 68 0 0.0 0.0 0.00 0.00 0.00 100 1018.9
20260903073055 67 0 0.0 0.0 0.00 0.00 0.00 100 1017.8
20260903071602 67 0 0.0 0.0 0.00 0.00 0.00 100 1017.5
20260903070057 67 0 0.0 0.0 0.00 0.00 0.00 100 1017.4
20260903064556 68 0 0.0 0.0 0.00 0.00 0.00 100 1017.7
20260903063103 68 0 0.0 0.0 0.00 0.00 0.00 100 1017.7
20260903061607 68 0 0.0 0.0 0.00 0.00 0.00 100 1018.3
20260903060059 68 0 0.0 3.0 0.00 0.00 0.00 100 1017.2
20260903054553 68 0 0.0 0.0 0.00 0.00 0.00 100 1018.2
20260903053057 68 0 0.0 9.0 0.00 0.00 0.00 100 1018.8
20260903051603 68 0 1.0 8.0 0.00 0.00 0.00 100 1019.7
20260903050056 68 0 0.0 0.0 0.00 0.00 0.00 100 1018.8
20260903044559 68 0 1.0 8.0 0.00 0.00 0.00 100 1019.2
20260903043058 69 87 0.0 0.0 0.00 0.00 0.00 100 1018.9
20260903041559 69 0 0.0 0.0 0.00 0.00 0.00 100 1018.8
20260903040105 69 0 0.0 4.0 0.00 0.00 0.00 100 1018.8
20260903034606 69 0 0.0 4.0 0.00 0.00 0.00 100 1019.2
20260903033056 69 0 0.0 0.0 0.00 0.00 0.00 100 1019.5
20260903031555 69 0 0.0 0.0 0.00 0.00 0.00 100 1019.3
20260903030058 68 0 0.0 4.0 0.00 0.00 0.00 100 1018.6
20260903024555 68 0 0.0 3.0 0.00 0.00 0.00 100 1018.6
20260903023122 68 0 0.0 4.0 0.00 0.00 0.00 100 1018.9
20260903021559 68 0 0.0 0.0 0.00 0.00 0.00 100 1019.1
20260903020100 68 0 0.0 3.0 0.00 0.00 0.00 100 1019.0
20260903014603 68 74 0.0 3.0 0.00 0.00 0.00 100 1018.7
20260903013056 68 0 0.0 4.0 0.00 0.00 0.00 100 1018.7
20260903011602 68 0 0.0 4.0 0.00 0.00 0.00 100 1018.8
20260903004557 69 0 0.0 4.0 0.00 0.00 0.00 100 1019.3
20260903003055 69 0 0.0 4.0 0.00 0.00 0.00 100 1019.1
20260903001600 69 0 0.0 0.0 0.00 0.00 0.00 100 1018.8
20260903000059 69 0 0.0 6.0 0.00 0.00 0.00 100 1018.5
20260902234605 69 0 0.0 0.0 0.00 0.00 0.00 100 1018.5
20260902233054 69 0 0.0 0.0 0.00 0.00 0.00 99 1018.5
20260902231602 69 0 0.0 0.0 0.00 0.00 0.00 99 1018.5
20260902230056 69 0 1.0 6.0 0.00 0.00 0.00 99 1018.5
20260902224603 69 0 0.0 5.0 0.00 0.00 0.00 99 1018.6
20260902223107 69 0 0.0 4.0 0.00 0.00 0.00 99 1018.9
20260902221557 70 0 0.0 4.0 0.00 0.00 0.00 99 1019.1
20260902214602 70 0 0.0 3.0 0.00 0.00 0.00 99 1019.2
20260902213106 70 0 0.0 5.0 0.00 0.00 0.00 99 1019.3
20260902211608 70 0 0.0 4.0 0.00 0.00 0.00 99 1018.8
20260902210106 70 49 1.0 6.0 0.00 0.00 0.00 99 1018.9
20260902204605 70 66 0.0 3.0 0.00 0.00 0.00 99 1018.7
20260902203106 70 0 0.0 3.0 0.00 0.00 0.00 99 1018.8
20260902201609 70 0 0.0 6.0 0.00 0.00 0.00 99 1019.1
20260902200104 69 80 2.0 9.0 0.00 0.00 0.00 99 1018.9
20260902194604 69 0 1.0 9.0 0.00 0.00 0.00 99 1018.9
20260902193103 70 0 0.0 4.0 0.00 0.00 0.00 100 1019.2
20260902191602 69 0 0.0 3.0 0.00 0.00 0.00 99 1019.3
20260902190057 69 0 0.0 0.0 0.00 0.00 0.00 99 1019.6
20260902184559 69 0 0.0 0.0 0.00 0.00 0.00 99 1019.9
20260902183107 69 0 0.0 0.0 0.00 0.00 0.00 99 1020.1
20260902181556 69 0 0.0 0.0 0.00 0.00 0.00 99 1020.4
20260902174600 69 0 0.0 0.0 0.00 0.00 0.00 99 1020.2
20260902173106 69 0 0.0 3.0 0.00 0.00 0.00 99 1020.3
20260902171610 69 0 0.0 3.0 0.00 0.00 0.00 100 1020.2
20260902170058 69 0 1.0 6.0 0.00 0.00 0.00 100 1020.7
20260902164556 69 0 0.0 0.0 0.00 0.00 0.00 100 1020.8
20260902163101 69 0 0.0 0.0 0.00 0.00 0.00 100 1020.7
20260902161600 68 0 0.0 0.0 0.00 0.00 0.00 100 1021.1
20260902160114 68 0 0.0 6.0 0.00 0.00 0.00 100 1020.8
20260902154607 68 0 0.0 8.0 0.00 0.00 0.00 100 1020.6
20260902153100 69 0 0.0 6.0 0.00 0.00 0.00 100 1020.6
20260902151604 68 0 0.0 3.0 0.00 0.00 0.00 100 1020.7
20260902144617 68 0 0.0 0.0 0.00 0.00 0.00 100 1020.7
20260902143103 68 82 2.0 8.0 0.00 0.00 0.00 100 1020.8
20260902141601 68 84 2.0 7.0 0.00 0.00 0.00 100 1020.6
20260902134559 68 0 2.0 8.0 0.00 0.00 0.00 100 1020.5
20260902133109 68 0 0.0 6.0 0.00 0.00 0.00 100 1020.5
20260902131601 68 0 2.0 7.0 0.00 0.00 0.00 100 1020.3
20260902130059 68 0 0.0 6.0 0.00 0.00 0.00 100 1020.0
20260902124555 68 102 0.0 7.0 0.00 0.00 0.00 100 1020.1
20260902123111 67 96 0.0 6.0 0.00 0.00 0.00 100 1019.9
20260902121603 67 0 0.0 0.0 0.00 0.00 0.00 100 1019.9
20260902120123 67 83 0.0 7.0 0.00 0.00 0.00 100 1019.9
20260902114555 67 0 0.0 6.0 0.00 0.00 0.00 100 1019.6
20260902113104 67 78 0.0 6.0 0.00 0.00 0.00 100 1019.6
20260902111556 67 0 0.0 0.0 0.00 0.00 0.00 100 1019.6
20260902110104 67 0 0.0 4.0 0.00 0.00 0.00 100 1019.9
20260902104609 67 101 0.0 7.0 0.00 0.00 0.00 100 1019.7
20260902103100 67 0 3.0 9.0 0.00 0.00 0.00 100 1019.5
20260902101555 68 0 0.0 4.0 0.00 0.00 0.00 99 1019.3
20260902100056 68 89 1.0 5.0 0.00 0.00 0.00 99 1019.3
20260902094600 68 0 0.0 0.0 0.00 0.00 0.00 99 1019.3
20260902093105 68 0 0.0 3.0 0.00 0.00 0.00 99 1019.4
20260902091602 68 0 0.0 0.0 0.00 0.00 0.00 99 1019.1
20260902090101 68 84 0.0 7.0 0.00 0.00 0.00 99 1018.8
20260902084606 68 94 1.0 8.0 0.00 0.00 0.00 99 1018.7
20260902083108 68 0 1.0 8.0 0.00 0.00 0.00 99 1018.5
20260902081558 69 0 1.0 4.0 0.00 0.00 0.00 99 1018.3
20260902080112 69 0 0.0 8.0 0.00 0.00 0.00 99 1018.3
20260902074555 69 0 1.0 9.0 0.00 0.00 0.00 99 1018.1
20260902073052 69 0 1.0 4.0 0.00 0.00 0.00 99 1018.1
20260902071603 70 71 0.0 6.0 0.00 0.00 0.00 99 1017.9
20260902070058 70 0 1.0 5.0 0.00 0.00 0.00 99 1018.1
20260902064603 70 108 1.0 8.0 0.00 0.00 0.00 98 1018.0
20260902063105 71 79 0.0 5.0 0.00 0.00 0.00 99 1017.9
20260902061613 71 0 0.0 6.0 0.00 0.00 0.00 99 1017.8
20260902060118 71 0 0.0 5.0 0.00 0.00 0.00 98 1017.8
20260902054612 71 88 0.0 6.0 0.00 0.00 0.00 98 1017.8
20260902053104 71 107 0.0 6.0 0.00 0.00 0.00 98 1017.9
20260902051557 71 0 1.0 4.0 0.00 0.00 0.00 98 1018.0
20260902044601 72 0 0.0 0.0 0.00 0.00 0.00 98 1018.1
20260902043104 72 0 0.0 0.0 0.00 0.00 0.00 98 1018.1
20260902041555 72 0 0.0 0.0 0.00 0.00 0.00 98 1018.0